Погода в Буссе

Россия / Амурская область     51°13′08″N   126°54′54″E
темп.,
°C
ветер,
м/с
пор.,
м/с
влажн.,
%
обл.,
%
осадки,
мм/ч
давл.,
гПа
погр.,
м
20 января, ср
ср2000:00−28ююв22910 0.0 102326
03:00−27ююв229245 0.0 102263
06:00−26ююв369295 0.0 1021164
09:00−26ююв259579 0.0 1020129
12:00−20ююв3790100 0.0 1018335
15:00−20юв3696100 1.7 1015326
18:00−20юв1499100 0.9 1016213
21:00−21ссз2299100 1.6 101654
21 января, чт
чт2100:00−25ссз41094100 0.0 1019340
03:00−28сз4109376 0.1 1022308
06:00−30сз26930 0.0 1024144
09:00−31з22900 0.0 102539
12:00−23зсз36790 0.0 1025455
15:00−20сз36770 0.0 1024680
18:00−26сз11890 0.0 102620
21:00−27з11890 0.0 102719
22 января, пт
пт2200:00−28зсз11890 0.0 102719
03:00−29зсз11870 0.0 102719
06:00−30сз118712 0.0 102719
09:00−30зсз118711 0.0 102819
12:00−23зсз13760 0.0 1029270
15:00−20з12740 0.0 1028401
18:00−26ююв11870 0.0 102920
21:00−27ю12900 0.0 102919
23 января, сб
сб2300:00−28ююв229340 0.0 102920
03:00−28ююв229534 0.0 102931
06:00−27юв249599 0.0 102773
09:00−27юв259575 0.0 1027139
12:00−22ююв2489100 0.0 1026206
15:00−20вюв2391100 0.0 1024218
18:00−22юв1297100 0.0 102437
21:00−21св1199100 0.3 102628
24 января, вс
вс2400:00−23с2498100 0.1 1028117
03:00−27ссз249898 0.2 103173
06:00−30ссз249670 0.0 103382
09:00−31сз129634 0.0 103748
12:00−25сз138441 0.0 1038308
15:00−23ссз138371 0.0 1038338
18:00−24св1192100 0.0 103920
21:00−24св119299 0.0 104019